West Plains, MO

8:42 AM CDT on July 22, 2017 (GMT -0500)
West Plains Municipal

Weather History for KUNO - December, 2013

Change the Weather History Date:

Saturday, December 21, 2013

  Actual Average Record
Temperature  
Mean Temperature 38 °F 35 °F  
Max Temperature 42 °F 45 °F 69 °F (2015)
Min Temperature 34 °F 25 °F 2 °F (1960)
Degree Days  
Heating Degree Days 27 30  
Month to date heating degree days 510 587  
Since 1 July heating degree days 1422 1439  
Cooling Degree Days 0 0  
Month to date cooling degree days 0 0  
Year to date cooling degree days 1073 1354  
Moisture  
Dew Point 36 °F    
Average Humidity 96    
Maximum Humidity 100    
Minimum Humidity 92    
Precipitation  
Precipitation 1.41 in 0.10 in 2.68 in (1984)
Month to date precipitation 2.31 2.81  
Year to date precipitation 54.20 45.39  
Sea Level Pressure  
Sea Level Pressure 29.68 in    
Wind  
Wind Speed 8 mph (NNE)    
Max Wind Speed 18 mph    
Max Gust Speed 24 mph    
Visibility 6 miles    
Events Rain , Thunderstorm    
T = Trace of Precipitation, MM = Missing Value Source: NWS Daily Summary

Daily Weather History Graph

Daily Weather History Graph

Search for Another Location

Airport or City:

Trip Planner

Search our weather history database for the weather conditions in past years. The results will help you decide how hot, cold, wet, or windy it might be!

Date:

Astronomy

Dec. 21, 2013 Rise Set
Actual Time 7:16 AM CST 4:54 PM CST
Civil Twilight 6:47 AM CST 5:23 PM CST
Nautical Twilight 6:15 AM CST 5:56 PM CST
Astronomical Twilight 5:43 AM CST 6:28 PM CST
Moon 9:05 PM CST (12/21) 9:48 AM CST (12/21)
Length of Visible Light 10h 35m
Length of Day
9h 37m
Waning Gibbous, 84% of the Moon is Illuminated
Dec 21
Waning Gibbous
Dec 25
Last Quarter
Jan 1
New
Jan 7
First Quarter
Jan 15
Full

Hourly Weather History & Observations

Time (CST) Temp. Windchill Dew Point Humidity Pressure Visibility Wind Dir Wind Speed Gust Speed Precip Events Conditions
12:30 AM 41.0 °F 35.8 °F 39.0 °F 93% 29.74 in 3.0 mi NNE 8.1 mph - 0.13 in Rain Rain
12:43 AM 41.0 °F 36.4 °F 39.9 °F 96% 29.77 in 1.8 mi Variable 6.9 mph - 0.23 in Rain Heavy Rain
12:53 AM 41.0 °F 36.4 °F 39.0 °F 93% 29.74 in 2.0 mi North 6.9 mph - 0.30 in Rain Rain
1:01 AM 39.9 °F 35.1 °F 39.0 °F 97% 29.74 in 5.0 mi NNE 6.9 mph - 0.00 in Rain Light Rain
1:39 AM 39.9 °F 32.1 °F 39.0 °F 97% 29.72 in 5.0 mi NE 13.8 mph - 0.04 in Rain Rain
1:53 AM 39.9 °F 34.5 °F 39.0 °F 97% 29.73 in 5.0 mi North 8.1 mph - 0.07 in Rain Rain
2:06 AM 39.0 °F 31.8 °F 37.9 °F 96% 29.74 in 4.0 mi North 11.5 mph - 0.03 in Rain , Thunderstorm Rain
2:27 AM 39.0 °F 31.8 °F 37.0 °F 93% 29.73 in 6.0 mi NNE 11.5 mph - 0.06 in Rain Rain
2:34 AM 39.0 °F 32.8 °F 37.0 °F 93% 29.73 in 4.0 mi North 9.2 mph - 0.10 in Rain Heavy Rain
2:44 AM 39.0 °F 32.3 °F 37.0 °F 93% 29.73 in 3.0 mi North 10.4 mph - 0.16 in Rain Heavy Rain
2:53 AM 39.0 °F 31.8 °F 37.0 °F 93% 29.72 in 4.0 mi North 11.5 mph - 0.19 in Rain Rain
3:01 AM 37.9 °F 31.5 °F 37.0 °F 97% 29.75 in 3.0 mi NNW 9.2 mph 18.4 mph 0.04 in Rain Heavy Rain
3:26 AM 37.9 °F 32.7 °F 37.0 °F 97% 29.76 in 4.0 mi NNW 6.9 mph - 0.12 in Rain Heavy Rain
3:41 AM 37.9 °F 30.0 °F 36.0 °F 93% 29.72 in 4.0 mi North 12.7 mph - 0.17 in Rain Rain
3:53 AM 37.9 °F 30.5 °F 36.0 °F 93% 29.69 in 4.0 mi NE 11.5 mph - 0.20 in Rain Rain
4:53 AM 37.9 °F 32.1 °F 36.0 °F 93% 29.68 in 10.0 mi NNE 8.1 mph - 0.11 in Rain Light Rain
5:43 AM 37.9 °F 35.5 °F 37.0 °F 97% 29.73 in 7.0 mi ENE 3.5 mph - 0.06 in Rain Light Rain
5:53 AM 39.0 °F 35.7 °F 37.0 °F 93% 29.73 in 10.0 mi NNE 4.6 mph - 0.06 in   Overcast
6:25 AM 37.9 °F 32.1 °F 36.0 °F 93% 29.73 in 7.0 mi NNW 8.1 mph - 0.04 in Rain Light Rain
6:53 AM 37.9 °F 34.4 °F 37.0 °F 97% 29.73 in 10.0 mi NNW 4.6 mph - 0.07 in Rain Light Rain
7:10 AM 37.9 °F 31.5 °F 36.0 °F 93% 29.72 in 9.0 mi NNW 9.2 mph - 0.02 in Rain Light Rain
7:53 AM 37.0 °F 31.0 °F 36.0 °F 96% 29.74 in 6.0 mi NNE 8.1 mph - 0.06 in Rain Light Rain
8:53 AM 36.0 °F 30.3 °F 35.1 °F 97% 29.76 in 6.0 mi North 6.9 mph - 0.05 in Rain Light Rain
9:06 AM 36.0 °F 30.3 °F 34.0 °F 93% 29.75 in 4.0 mi North 6.9 mph - 0.02 in Rain Rain
9:35 AM 36.0 °F 29.6 °F 35.1 °F 97% 29.74 in 5.0 mi NE 8.1 mph - 0.06 in Rain Light Rain
9:44 AM 36.0 °F 28.5 °F 35.1 °F 97% 29.73 in 5.0 mi NE 10.4 mph - 0.06 in Rain Light Rain
9:51 AM 35.6 °F 28.0 °F 33.8 °F 93% 29.71 in 5.0 mi NE 10.4 mph - 0.07 in Rain Light Rain
9:53 AM 36.0 °F 28.5 °F 34.0 °F 93% 29.73 in 5.0 mi NE 10.4 mph - 0.07 in Rain Light Rain
10:26 AM 37.0 °F 29.3 °F 35.1 °F 93% 29.69 in 6.0 mi NNE 11.5 mph - 0.03 in Rain Light Rain
10:44 AM 37.0 °F 29.8 °F 36.0 °F 96% 29.67 in 6.0 mi NNE 10.4 mph - 0.04 in Rain Light Rain
10:53 AM 37.0 °F 31.0 °F 36.0 °F 96% 29.70 in 6.0 mi NNE 8.1 mph - 0.04 in Rain Light Rain
11:13 AM 37.9 °F 30.9 °F 36.0 °F 93% 29.67 in 2.5 mi NE 10.4 mph - 0.02 in Rain Rain
11:32 AM 37.9 °F 31.5 °F 37.0 °F 97% 29.62 in 3.0 mi NNE 9.2 mph - 0.04 in Rain Light Rain
11:51 AM 39.2 °F 32.5 °F 37.4 °F 93% 29.62 in 8.0 mi NE 10.4 mph - 0.05 in Rain Light Rain
11:53 AM 39.0 °F 32.3 °F 37.0 °F 93% 29.63 in 9.0 mi NE 10.4 mph - 0.05 in Rain Light Rain
12:22 PM 39.9 °F 35.1 °F 37.9 °F 93% 29.62 in 2.0 mi North 6.9 mph - 0.05 in Rain Rain
12:29 PM 39.9 °F 36.7 °F 39.0 °F 97% 29.62 in 2.0 mi North 4.6 mph - 0.06 in Rain Rain
12:40 PM 39.9 °F 36.7 °F 39.0 °F 97% 29.63 in 4.0 mi NNE 4.6 mph - 0.07 in Rain Light Rain
12:53 PM 39.9 °F 35.8 °F 39.0 °F 97% 29.60 in 2.5 mi NNE 5.8 mph - 0.09 in Rain Light Rain
1:15 PM 41.0 °F 36.4 °F 39.9 °F 96% 29.60 in 3.0 mi NNW 6.9 mph - 0.01 in Rain Light Rain
1:53 PM 42.1 °F 37.1 °F 39.9 °F 92% 29.57 in 10.0 mi NNW 8.1 mph - 0.01 in   Overcast
2:53 PM 39.9 °F 34.5 °F 37.9 °F 93% 29.60 in 10.0 mi North 8.1 mph - 0.01 in Rain Light Rain
3:53 PM 37.9 °F 30.5 °F 36.0 °F 93% 29.58 in 10.0 mi North 11.5 mph - 0.03 in Rain Light Rain
4:23 PM 37.0 °F 31.0 °F 36.0 °F 96% 29.57 in 10.0 mi NNW 8.1 mph - 0.00 in   Overcast
4:53 PM 37.0 °F 29.8 °F 35.1 °F 93% 29.61 in 10.0 mi NNW 10.4 mph - 0.00 in   Overcast
5:53 PM 36.0 °F 29.0 °F 34.0 °F 93% 29.63 in 10.0 mi NNE 9.2 mph - 0.01 in Rain Light Rain
6:53 PM 35.1 °F 27.9 °F 33.1 °F 92% 29.59 in 10.0 mi NNE 9.2 mph - 0.01 in   Overcast
7:38 PM 34.0 °F 25.0 °F 33.1 °F 96% 29.51 in 10.0 mi NE 12.7 mph - N/A   Overcast
7:53 PM 34.0 °F 24.6 °F 33.1 °F 96% 29.55 in 10.0 mi NE 13.8 mph - N/A   Overcast
8:43 PM 35.1 °F 32.2 °F 33.1 °F 92% 29.60 in 10.0 mi North 3.5 mph - N/A   Overcast
8:53 PM 35.1 °F - 33.1 °F 92% 29.62 in 10.0 mi Calm Calm - N/A   Overcast
9:53 PM 36.0 °F 31.1 °F 33.1 °F 89% 29.69 in 10.0 mi West 5.8 mph - N/A   Overcast
10:34 PM 36.0 °F 33.3 °F 35.1 °F 97% 29.69 in 10.0 mi SW 3.5 mph - N/A   Overcast
10:53 PM 36.0 °F - 34.0 °F 93% 29.69 in 9.0 mi Calm Calm - N/A   Overcast
11:21 PM 36.0 °F 30.3 °F 34.0 °F 93% 29.69 in 2.0 mi West 6.9 mph - 0.00 in   Overcast
11:44 PM 36.0 °F 31.1 °F 35.1 °F 97% 29.67 in 4.0 mi WSW 5.8 mph - 0.00 in   Overcast
11:53 PM 36.0 °F - 35.1 °F 97% 29.68 in 9.0 mi Calm Calm - 0.00 in   Overcast